Location: ASU Dark Sky Observatory
(36.2504°N, 81.4125°W)
Time: 13:24:31
(UTC-04:00)

ETS-7 - Visible Passes

Search period start: 24 April 2014 00:00
Search period end: 04 May 2014 00:00
Orbit: 422 x 427 km, 35.0° (Epoch: 22 April)

Date Brightness Start Highest point End Pass type
(mag) Time Alt. Az. Time Alt. Az. Time Alt. Az.
28 Apr 4.1 05:50:27 10° SSW 05:53:11 22° SSE 05:55:55 10° ESE visible
29 Apr 4.2 05:05:13 17° SSE 05:05:47 18° SSE 05:08:10 10° ESE visible
30 Apr 5.2 04:20:02 11° ESE 04:20:02 11° ESE 04:20:10 10° ESE visible
30 Apr 2.9 05:53:01 11° WSW 05:56:05 44° SSE 05:59:21 10° E visible
01 May 3.1 05:07:45 32° SSW 05:08:31 37° SSE 05:11:42 10° E visible
02 May 4.3 04:22:25 21° ESE 04:22:25 21° ESE 04:23:59 10° E visible
02 May 2.3 05:55:30 10° WSW 05:58:53 68° S 06:02:17 10° E visible
03 May 2.3 05:10:01 35° WSW 05:11:12 62° S 05:14:34 10° E visible
